Atlantic
Tuesday 11:15 PM
Temperature61° (75°/46°)
Dew Point61°
Relative Humidity100
%
Visibility10
mi
Pressure1019.3
mb
Wind DirectionS
180°
Wind Speed5
mph
Precipitation Today0.00"

Last 30 Observations

Time PresWx Temp DP Feels RH% Vsby Pressure Ceiling Direction Speed 1h Precip
10:55 PM 63° 61° 94
%
10
mi
1019.0
mb
S
170°
5
mph
0.00"
10:35 PM 61° 61° 100
%
10
mi
1019.3
mb
6,000
ft
Calm 0.00"
10:15 PM 63° 63° 100
%
10
mi
1019.3
mb
6,000
ft
Calm 0.00"
9:55 PM 64° 63° 94
%
10
mi
1019.3
mb
6,000
ft
Calm 0.00"
9:35 PM 64° 61° 88
%
10
mi
1019.0
mb
5,500
ft
SSW
210°
5
mph
0.00"
9:15 PM 64° 61° 88
%
10
mi
1018.6
mb
5,500
ft
SW
220°
3
mph
0.00"
8:55 PM 66° 59° 78
%
10
mi
1018.3
mb
S
170°
5
mph
0.00"
8:35 PM 70° 57° 64
%
10
mi
1018.0
mb
SSE
150°
5
mph
0.00"
8:15 PM 72° 57° 71°60
%
10
mi
1018.0
mb
SSE
150°
5
mph
0.00"
7:55 PM 73° 55° 73°53
%
10
mi
1018.0
mb
SSE
160°
5
mph
0.00"
7:35 PM 73° 55° 73°53
%
10
mi
1018.3
mb
6,000
ft
SSE
160°
6
mph
0.00"
7:15 PM 73° 55° 73°53
%
10
mi
1018.3
mb
6,000
ft
SE
140°
6
mph
0.00"
6:55 PM 73° 54° 73°50
%
10
mi
1018.3
mb
6,000
ft
S
180°
6
mph
0.00"
6:35 PM 73° 54° 73°50
%
10
mi
1018.6
mb
5,500
ft
S
190°
6
mph
0.00"
6:15 PM 73° 54° 73°50
%
10
mi
1019.0
mb
7,000
ft
WSW
250°
6
mph
0.00"
5:55 PM 75° 55° 75°50
%
10
mi
1019.0
mb
7,000
ft
Variable 5
mph
0.00"
5:35 PM 75° 55° 75°50
%
10
mi
1019.0
mb
7,000
ft
Variable 5
mph
0.00"
5:15 PM 73° 54° 73°50
%
10
mi
1019.3
mb
SSW
210°
6
mph
0.00"
4:55 PM 73° 54° 73°50
%
10
mi
1019.3
mb
SW
230°
5
mph
0.00"
4:35 PM 73° 55° 73°53
%
10
mi
1019.7
mb
SSW
200°
5
mph
0.00"
4:15 PM 73° 54° 73°50
%
10
mi
1019.7
mb
4,900
ft
SW
220°
5
mph
0.00"
3:55 PM 73° 54° 73°50
%
10
mi
1019.7
mb
SW
220°
5
mph
0.00"
3:35 PM 73° 54° 73°50
%
10
mi
1020.0
mb
6,500
ft
Calm 0.00"
3:15 PM 73° 54° 73°50
%
10
mi
1020.0
mb
5,000
ft
N
10°
5
mph
0.00"
2:55 PM 75° 54° 75°47
%
10
mi
1020.3
mb
Calm 0.00"
2:35 PM 73° 54° 73°50
%
10
mi
1020.3
mb
NNE
30°
6
mph
0.00"
2:15 PM 72° 54° 71°53
%
10
mi
1020.7
mb
4,900
ft
Calm 0.00"
1:55 PM 72° 54° 71°53
%
10
mi
1020.7
mb
4,600
ft
Calm 0.00"
1:35 PM 72° 54° 71°53
%
10
mi
1021.0
mb
SW
230°
6
mph
0.00"
1:15 PM 72° 54° 71°53
%
10
mi
1021.0
mb
Calm 0.00"